Time,TemperatureF,DewpointF,PressureIn,WindDirection,WindDirectionDegrees,WindSpeedMPH,WindSpeedGustMPH,Humidity,HourlyPrecipIn,Conditions,Clouds,dailyrainin,SoftwareType,DateUTC
2013-07-11 00:01:00,70.2,60.7,29.53,North,349,0.0,0.0,72,0.00,,,0.00,Wunderground v.1.15,2013-07-11 05:01:00,
2013-07-11 00:06:00,-999.9,-99.9,29.53,North,349,0.0,2.0,72,0.00,,,0.00,Wunderground v.1.15,2013-07-11 05:06:00,
2013-07-11 00:10:00,70.0,60.6,29.53,North,349,0.0,0.0,72,0.00,,,0.00,Wunderground v.1.15,2013-07-11 05:10:00,
2013-07-11 00:15:00,70.3,-99.9,29.53,North,349,0.0,4.0,255,0.00,,,0.00,Wunderground v.1.15,2013-07-11 05:15:00,
2013-07-11 00:20:00,69.9,60.5,29.53,North,349,0.0,0.0,72,0.00,,,0.00,Wunderground v.1.15,2013-07-11 05:20:00,
2013-07-11 00:25:00,69.8,61.1,29.53,North,349,0.0,4.0,74,0.00,,,0.00,Wunderground v.1.15,2013-07-11 05:25:00,
2013-07-11 00:30:00,69.7,61.0,29.53,North,349,0.0,0.0,74,0.00,,,0.00,Wunderground v.1.15,2013-07-11 05:30:00,
2013-07-11 00:35:00,69.5,-99.9,29.53,North,349,0.0,0.0,255,0.00,,,0.00,Wunderground v.1.15,2013-07-11 05:35:00,
2013-07-11 00:40:00,69.4,-99.9,29.53,North,349,0.0,0.0,255,0.00,,,0.00,Wunderground v.1.15,2013-07-11 05:40:00,
2013-07-11 00:45:00,69.0,61.1,29.53,North,349,0.0,0.0,76,0.00,,,0.00,Wunderground v.1.15,2013-07-11 05:45:00,
2013-07-11 00:50:00,69.1,60.8,29.53,North,349,0.0,0.0,75,0.00,,,0.00,Wunderground v.1.15,2013-07-11 05:50:00,
2013-07-11 00:55:00,68.5,61.0,29.53,North,349,0.0,0.0,77,0.00,,,0.00,Wunderground v.1.15,2013-07-11 05:55:00,
2013-07-11 01:00:00,68.2,60.7,29.53,North,349,0.0,0.0,77,0.00,,,0.00,Wunderground v.1.15,2013-07-11 06:00:00,
2013-07-11 01:05:00,68.0,60.9,29.53,North,349,0.0,0.0,78,0.00,,,0.00,Wunderground v.1.15,2013-07-11 06:05:00,
2013-07-11 01:10:00,67.9,61.1,29.53,North,349,0.0,0.0,79,0.00,,,0.00,Wunderground v.1.15,2013-07-11 06:10:00,
2013-07-11 01:15:00,67.7,61.0,29.53,North,349,0.0,4.0,79,0.00,,,0.00,Wunderground v.1.15,2013-07-11 06:15:00,
2013-07-11 01:20:00,67.7,61.0,29.53,North,349,0.0,0.0,79,0.00,,,0.00,Wunderground v.1.15,2013-07-11 06:20:00,
2013-07-11 01:25:00,67.4,61.0,29.53,North,349,0.0,2.0,80,0.00,,,0.00,Wunderground v.1.15,2013-07-11 06:25:00,
2013-07-11 01:30:00,67.3,60.9,29.53,North,349,0.0,0.0,80,0.00,,,0.00,Wunderground v.1.15,2013-07-11 06:30:00,
2013-07-11 01:35:00,67.1,60.7,29.53,North,349,0.0,1.0,80,0.00,,,0.00,Wunderground v.1.15,2013-07-11 06:35:00,
2013-07-11 01:40:00,67.0,60.6,29.53,North,349,0.0,0.0,80,0.00,,,0.00,Wunderground v.1.15,2013-07-11 06:40:00,
2013-07-11 01:45:00,66.8,60.8,29.53,North,349,0.0,0.0,81,0.00,,,0.00,Wunderground v.1.15,2013-07-11 06:45:00,
2013-07-11 01:50:00,66.7,60.7,29.53,North,349,0.0,0.0,81,0.00,,,0.00,Wunderground v.1.15,2013-07-11 06:50:00,
2013-07-11 01:55:00,66.5,60.5,29.53,North,349,0.0,0.0,81,0.00,,,0.00,Wunderground v.1.15,2013-07-11 06:55:00,
2013-07-11 02:00:00,66.3,60.6,29.53,North,349,0.0,0.0,82,0.00,,,0.00,Wunderground v.1.15,2013-07-11 07:00:00,
2013-07-11 02:05:00,66.2,60.5,29.53,North,349,0.0,0.0,82,0.00,,,0.00,Wunderground v.1.15,2013-07-11 07:05:00,
2013-07-11 02:10:00,66.1,60.4,29.53,North,349,0.0,0.0,82,0.00,,,0.00,Wunderground v.1.15,2013-07-11 07:10:00,
2013-07-11 02:15:00,65.9,60.6,29.53,North,349,0.0,0.0,83,0.00,,,0.00,Wunderground v.1.15,2013-07-11 07:15:00,
2013-07-11 02:20:00,65.8,60.5,29.53,North,349,0.0,0.0,83,0.00,,,0.00,Wunderground v.1.15,2013-07-11 07:20:00,
2013-07-11 02:25:00,66.0,60.3,29.54,North,349,0.0,0.0,82,0.00,,,0.00,Wunderground v.1.15,2013-07-11 07:25:00,
2013-07-11 02:30:00,65.6,60.3,29.54,North,349,0.0,0.0,83,0.00,,,0.00,Wunderground v.1.15,2013-07-11 07:30:00,
2013-07-11 02:35:00,65.5,60.2,29.54,North,349,0.0,0.0,83,0.00,,,0.00,Wunderground v.1.15,2013-07-11 07:35:00,
2013-07-11 02:40:00,65.4,60.1,29.54,North,349,0.0,0.0,83,0.00,,,0.00,Wunderground v.1.15,2013-07-11 07:40:00,
2013-07-11 02:45:00,65.2,60.2,29.54,North,349,0.0,0.0,84,0.00,,,0.00,Wunderground v.1.15,2013-07-11 07:45:00,
2013-07-11 02:50:00,65.1,60.1,29.54,North,349,0.0,0.0,84,0.00,,,0.00,Wunderground v.1.15,2013-07-11 07:50:00,
2013-07-11 02:55:00,65.0,60.0,29.54,North,349,0.0,0.0,84,0.00,,,0.00,Wunderground v.1.15,2013-07-11 07:55:00,
2013-07-11 03:00:00,64.9,59.9,29.54,North,349,0.0,0.0,84,0.00,,,0.00,Wunderground v.1.15,2013-07-11 08:00:00,
2013-07-11 03:05:00,64.8,59.9,29.54,North,349,0.0,0.0,84,0.00,,,0.00,Wunderground v.1.15,2013-07-11 08:05:00,
2013-07-11 03:10:00,64.7,60.1,29.54,North,349,0.0,0.0,85,0.00,,,0.00,Wunderground v.1.15,2013-07-11 08:10:00,
2013-07-11 03:15:00,64.6,60.0,29.54,North,349,0.0,0.0,85,0.00,,,0.00,Wunderground v.1.15,2013-07-11 08:15:00,
2013-07-11 03:20:00,64.5,59.9,29.54,North,349,0.0,0.0,85,0.00,,,0.00,Wunderground v.1.15,2013-07-11 08:20:00,
2013-07-11 03:25:00,64.4,59.8,29.54,North,349,0.0,0.0,85,0.00,,,0.00,Wunderground v.1.15,2013-07-11 08:25:00,
2013-07-11 03:30:00,64.3,59.7,29.54,North,349,0.0,0.0,85,0.00,,,0.00,Wunderground v.1.15,2013-07-11 08:30:00,
2013-07-11 03:35:00,64.1,59.5,29.54,North,349,0.0,0.0,85,0.00,,,0.00,Wunderground v.1.15,2013-07-11 08:35:00,
2013-07-11 03:40:00,64.1,59.5,29.54,North,349,0.0,0.0,85,0.00,,,0.00,Wunderground v.1.15,2013-07-11 08:40:00,
2013-07-11 03:45:00,64.1,59.5,29.54,North,349,0.0,0.0,85,0.00,,,0.00,Wunderground v.1.15,2013-07-11 08:45:00,
2013-07-11 03:50:00,64.0,59.7,29.54,North,349,0.0,0.0,86,0.00,,,0.00,Wunderground v.1.15,2013-07-11 08:50:00,
2013-07-11 03:55:00,63.9,59.6,29.53,North,349,0.0,0.0,86,0.00,,,0.00,Wunderground v.1.15,2013-07-11 08:55:00,
2013-07-11 04:00:00,63.8,59.5,29.54,North,349,0.0,0.0,86,0.00,,,0.00,Wunderground v.1.15,2013-07-11 09:00:00,
2013-07-11 04:05:00,65.1,60.1,29.54,North,349,0.0,0.0,84,0.00,,,0.00,Wunderground v.1.15,2013-07-11 09:05:00,
2013-07-11 04:10:00,63.6,59.3,29.54,North,349,0.0,0.0,86,0.00,,,0.00,Wunderground v.1.15,2013-07-11 09:10:00,
2013-07-11 04:15:00,63.4,59.5,29.54,North,349,0.0,0.0,87,0.00,,,0.00,Wunderground v.1.15,2013-07-11 09:15:00,
2013-07-11 04:20:00,63.3,59.4,29.54,North,349,0.0,0.0,87,0.00,,,0.00,Wunderground v.1.15,2013-07-11 09:20:00,
2013-07-11 04:25:00,63.2,59.3,29.54,North,349,0.0,0.0,87,0.00,,,0.00,Wunderground v.1.15,2013-07-11 09:25:00,
2013-07-11 04:30:00,63.1,58.8,29.55,North,349,0.0,0.0,86,0.00,,,0.00,Wunderground v.1.15,2013-07-11 09:30:00,
2013-07-11 04:35:00,62.9,59.0,29.55,North,349,0.0,0.0,87,0.00,,,0.00,Wunderground v.1.15,2013-07-11 09:35:00,
2013-07-11 04:40:00,62.8,59.2,29.55,North,349,0.0,0.0,88,0.00,,,0.00,Wunderground v.1.15,2013-07-11 09:40:00,
2013-07-11 04:45:00,62.7,59.1,29.55,North,349,0.0,0.0,88,0.00,,,0.00,Wunderground v.1.15,2013-07-11 09:45:00,
2013-07-11 04:50:00,62.5,58.9,29.55,North,349,0.0,0.0,88,0.00,,,0.00,Wunderground v.1.15,2013-07-11 09:50:00,
2013-07-11 04:55:00,62.5,58.9,29.55,North,349,0.0,0.0,88,0.00,,,0.00,Wunderground v.1.15,2013-07-11 09:55:00,
2013-07-11 05:00:00,62.4,58.8,29.55,North,349,0.0,0.0,88,0.00,,,0.00,Wunderground v.1.15,2013-07-11 10:00:00,
2013-07-11 05:05:00,62.2,58.6,29.55,North,349,0.0,0.0,88,0.00,,,0.00,Wunderground v.1.15,2013-07-11 10:05:00,
2013-07-11 05:10:00,62.1,58.5,29.55,North,349,0.0,0.0,88,0.00,,,0.00,Wunderground v.1.15,2013-07-11 10:10:00,
2013-07-11 05:15:00,62.0,58.7,29.55,North,349,0.0,0.0,89,0.00,,,0.00,Wunderground v.1.15,2013-07-11 10:15:00,
2013-07-11 05:20:00,61.9,58.6,29.56,North,349,0.0,0.0,89,0.00,,,0.00,Wunderground v.1.15,2013-07-11 10:20:00,
2013-07-11 05:25:00,61.9,58.6,29.56,North,349,0.0,0.0,89,0.00,,,0.00,Wunderground v.1.15,2013-07-11 10:25:00,
2013-07-11 05:29:00,61.8,58.5,29.56,North,349,0.0,0.0,89,0.00,,,0.00,Wunderground v.1.15,2013-07-11 10:29:00,
2013-07-11 05:34:00,61.7,58.4,29.56,North,349,0.0,0.0,89,0.00,,,0.00,Wunderground v.1.15,2013-07-11 10:34:00,
2013-07-11 05:39:00,61.6,58.3,29.56,North,349,0.0,0.0,89,0.00,,,0.00,Wunderground v.1.15,2013-07-11 10:39:00,
2013-07-11 05:44:00,61.6,58.6,29.56,North,349,0.0,0.0,90,0.00,,,0.00,Wunderground v.1.15,2013-07-11 10:44:00,
2013-07-11 05:49:00,61.6,58.6,29.56,North,349,0.0,0.0,90,0.00,,,0.00,Wunderground v.1.15,2013-07-11 10:49:00,
2013-07-11 05:54:00,61.5,58.5,29.57,North,349,0.0,0.0,90,0.00,,,0.00,Wunderground v.1.15,2013-07-11 10:54:00,
2013-07-11 05:59:00,61.5,58.5,29.56,North,349,0.0,0.0,90,0.00,,,0.00,Wunderground v.1.15,2013-07-11 10:59:00,
2013-07-11 06:04:00,61.4,58.4,29.56,North,349,0.0,0.0,90,0.00,,,0.00,Wunderground v.1.15,2013-07-11 11:04:00,
2013-07-11 06:09:00,61.3,58.3,29.56,North,349,0.0,0.0,90,0.00,,,0.00,Wunderground v.1.15,2013-07-11 11:09:00,
2013-07-11 06:14:00,61.3,58.3,29.57,North,349,0.0,0.0,90,0.00,,,0.00,Wunderground v.1.15,2013-07-11 11:14:00,
2013-07-11 06:19:00,61.3,58.7,29.57,North,349,0.0,0.0,91,0.00,,,0.00,Wunderground v.1.15,2013-07-11 11:19:00,
2013-07-11 06:24:00,61.3,58.7,29.57,North,349,0.0,0.0,91,0.00,,,0.00,Wunderground v.1.15,2013-07-11 11:24:00,
2013-07-11 06:29:00,61.3,58.3,29.57,North,349,0.0,0.0,90,0.00,,,0.00,Wunderground v.1.15,2013-07-11 11:29:00,
2013-07-11 06:34:00,61.3,58.7,29.57,North,349,0.0,0.0,91,0.00,,,0.00,Wunderground v.1.15,2013-07-11 11:34:00,
2013-07-11 06:39:00,61.5,58.5,29.57,North,349,0.0,0.0,90,0.00,,,0.00,Wunderground v.1.15,2013-07-11 11:39:00,
2013-07-11 06:44:00,61.7,58.7,29.57,North,349,0.0,0.0,90,0.00,,,0.00,Wunderground v.1.15,2013-07-11 11:44:00,
2013-07-11 06:49:00,61.8,59.1,29.57,North,349,0.0,0.0,91,0.00,,,0.00,Wunderground v.1.15,2013-07-11 11:49:00,
2013-07-11 06:54:00,62.1,59.4,29.57,North,349,0.0,0.0,91,0.00,,,0.00,Wunderground v.1.15,2013-07-11 11:54:00,
2013-07-11 06:59:00,62.3,59.6,29.58,North,349,0.0,0.0,91,0.00,,,0.00,Wunderground v.1.15,2013-07-11 11:59:00,
2013-07-11 07:04:00,62.7,60.0,29.58,North,349,0.0,0.0,91,0.00,,,0.00,Wunderground v.1.15,2013-07-11 12:04:00,
2013-07-11 07:09:00,63.1,63.1,29.58,North,349,0.0,0.0,100,0.00,,,0.00,Wunderground v.1.15,2013-07-11 12:09:00,
2013-07-11 07:14:00,63.6,60.9,29.58,North,349,0.0,0.0,91,0.00,,,0.00,Wunderground v.1.15,2013-07-11 12:14:00,
2013-07-11 07:19:00,64.1,61.1,29.58,North,349,0.0,0.0,90,0.00,,,0.00,Wunderground v.1.15,2013-07-11 12:19:00,
2013-07-11 07:24:00,64.7,61.4,29.58,North,349,0.0,0.0,89,0.00,,,0.00,Wunderground v.1.15,2013-07-11 12:24:00,
2013-07-11 07:29:00,65.4,61.4,29.58,North,349,0.0,0.0,87,0.00,,,0.00,Wunderground v.1.15,2013-07-11 12:29:00,
2013-07-11 07:34:00,66.2,60.5,29.58,North,349,0.0,0.0,82,0.00,,,0.00,Wunderground v.1.15,2013-07-11 12:34:00,
2013-07-11 07:39:00,66.7,61.7,29.58,North,349,0.0,0.0,84,0.00,,,0.00,Wunderground v.1.15,2013-07-11 12:39:00,
2013-07-11 07:44:00,67.4,62.1,29.58,North,349,0.0,0.0,83,0.00,,,0.00,Wunderground v.1.15,2013-07-11 12:44:00,
2013-07-11 07:49:00,68.6,63.2,29.59,North,349,0.0,0.0,83,0.00,,,0.00,Wunderground v.1.15,2013-07-11 12:49:00,
2013-07-11 07:54:00,68.5,62.8,29.59,North,349,0.0,0.0,82,0.00,,,0.00,Wunderground v.1.15,2013-07-11 12:54:00,
2013-07-11 08:00:00,69.0,62.6,29.58,North,349,0.0,0.0,80,0.00,,,0.00,Wunderground v.1.15,2013-07-11 13:00:00,
2013-07-11 08:05:00,69.3,63.2,29.59,North,349,0.0,0.0,81,0.00,,,0.00,Wunderground v.1.15,2013-07-11 13:05:00,
2013-07-11 08:11:00,69.7,62.9,29.59,North,349,0.0,0.0,79,0.00,,,0.00,Wunderground v.1.15,2013-07-11 13:11:00,
2013-07-11 08:16:00,-999.9,-99.9,29.59,North,349,0.0,0.0,77,0.00,,,0.00,Wunderground v.1.15,2013-07-11 13:16:00,
2013-07-11 08:21:00,70.1,62.2,29.59,North,349,0.0,0.0,76,0.00,,,0.00,Wunderground v.1.15,2013-07-11 13:21:00,
2013-07-11 08:26:00,69.9,63.4,29.59,North,349,0.0,0.0,80,0.00,,,0.00,Wunderground v.1.15,2013-07-11 13:26:00,
2013-07-11 08:32:00,70.0,62.8,29.59,North,349,0.0,0.0,78,0.00,,,0.00,Wunderground v.1.15,2013-07-11 13:32:00,
2013-07-11 08:37:00,70.6,63.0,29.59,North,349,0.0,0.0,77,0.00,,,0.00,Wunderground v.1.15,2013-07-11 13:37:00,
2013-07-11 08:42:00,70.8,62.5,29.59,North,349,0.0,0.0,75,0.00,,,0.00,Wunderground v.1.15,2013-07-11 13:42:00,
2013-07-11 08:47:00,71.7,-99.9,29.59,NNW,348,0.0,0.0,255,0.00,,,0.00,Wunderground v.1.15,2013-07-11 13:47:00,
2013-07-11 08:53:00,71.6,63.3,29.59,NNW,343,0.0,0.0,75,0.00,,,0.00,Wunderground v.1.15,2013-07-11 13:53:00,
2013-07-11 08:58:00,72.4,63.6,29.59,NNW,343,0.0,0.0,74,0.00,,,0.00,Wunderground v.1.15,2013-07-11 13:58:00,
2013-07-11 09:03:00,72.8,63.6,29.59,NNW,343,0.0,0.0,73,0.00,,,0.00,Wunderground v.1.15,2013-07-11 14:03:00,
2013-07-11 09:08:00,73.0,63.8,29.59,NW,313,0.0,2.0,73,0.00,,,0.00,Wunderground v.1.15,2013-07-11 14:08:00,
2013-07-11 09:14:00,73.3,64.1,29.59,NW,313,0.0,0.0,73,0.00,,,0.00,Wunderground v.1.15,2013-07-11 14:14:00,
2013-07-11 09:19:00,73.9,63.1,29.59,NW,313,0.0,0.0,69,0.00,,,0.00,Wunderground v.1.15,2013-07-11 14:19:00,
2013-07-11 09:24:00,74.0,64.4,29.59,NW,313,0.0,0.0,72,0.00,,,0.00,Wunderground v.1.15,2013-07-11 14:24:00,
2013-07-11 09:29:00,74.6,64.2,29.59,NW,313,0.0,0.0,70,0.00,,,0.00,Wunderground v.1.15,2013-07-11 14:29:00,
2013-07-11 09:35:00,75.1,64.2,29.59,NW,313,0.0,0.0,69,0.00,,,0.00,Wunderground v.1.15,2013-07-11 14:35:00,
2013-07-11 09:40:00,76.2,-99.9,29.59,NW,313,0.0,0.0,255,0.00,,,0.00,Wunderground v.1.15,2013-07-11 14:40:00,
2013-07-11 09:45:00,76.2,63.6,29.58,NW,313,0.0,0.0,65,0.00,,,0.00,Wunderground v.1.15,2013-07-11 14:45:00,
2013-07-11 09:50:00,75.9,63.7,29.58,NW,313,0.0,0.0,66,0.00,,,0.00,Wunderground v.1.15,2013-07-11 14:50:00,
2013-07-11 09:55:00,76.1,64.3,29.59,NW,313,0.0,0.0,67,0.00,,,0.00,Wunderground v.1.15,2013-07-11 14:55:00,
2013-07-11 10:00:00,76.8,65.9,29.59,NW,325,0.0,0.0,69,0.00,,,0.00,Wunderground v.1.15,2013-07-11 15:00:00,
2013-07-11 10:05:00,77.3,65.1,29.59,NW,325,0.0,0.0,66,0.00,,,0.00,Wunderground v.1.15,2013-07-11 15:05:00,
2013-07-11 10:10:00,77.9,65.2,29.59,North,11,0.0,1.0,65,0.00,,,0.00,Wunderground v.1.15,2013-07-11 15:10:00,
2013-07-11 10:15:00,78.5,64.4,29.59,North,11,0.0,4.0,62,0.00,,,0.00,Wunderground v.1.15,2013-07-11 15:15:00,
2013-07-11 10:20:00,77.5,63.9,29.59,North,5,0.0,1.0,63,0.00,,,0.00,Wunderground v.1.15,2013-07-11 15:20:00,
2013-07-11 10:25:00,77.8,64.6,29.59,North,5,0.0,1.0,64,0.00,,,0.00,Wunderground v.1.15,2013-07-11 15:25:00,
2013-07-11 10:30:00,78.3,64.2,29.59,NNE,21,0.0,0.0,62,0.00,,,0.00,Wunderground v.1.15,2013-07-11 15:30:00,
2013-07-11 10:35:00,78.9,64.8,29.59,North,350,0.0,5.0,62,0.00,,,0.00,Wunderground v.1.15,2013-07-11 15:35:00,
2013-07-11 10:41:00,78.7,61.7,29.59,North,351,0.0,1.0,56,0.00,,,0.00,Wunderground v.1.15,2013-07-11 15:41:00,
2013-07-11 10:47:00,78.7,63.2,29.59,North,355,0.0,2.0,59,0.00,,,0.00,Wunderground v.1.15,2013-07-11 15:47:00,
2013-07-11 10:52:00,78.6,63.6,29.59,North,355,0.0,0.0,60,0.00,,,0.00,Wunderground v.1.15,2013-07-11 15:52:00,
2013-07-11 10:57:00,78.9,63.4,29.60,NE,34,5.0,5.0,59,0.00,,,0.00,Wunderground v.1.15,2013-07-11 15:57:00,
2013-07-11 11:02:00,-999.9,-99.9,29.59,NE,36,0.0,1.0,59,0.00,,,0.00,Wunderground v.1.15,2013-07-11 16:02:00,
2013-07-11 11:07:00,80.0,63.9,29.60,NE,36,0.0,5.0,58,0.00,,,0.00,Wunderground v.1.15,2013-07-11 16:07:00,
2013-07-11 11:13:00,-999.9,-99.9,29.59,NE,36,0.0,1.0,58,0.00,,,0.00,Wunderground v.1.15,2013-07-11 16:13:00,
2013-07-11 11:18:00,79.7,62.6,29.60,NE,36,0.0,1.0,56,0.00,,,0.00,Wunderground v.1.15,2013-07-11 16:18:00,
2013-07-11 11:24:00,80.0,-99.9,29.59,NW,325,1.0,5.0,255,0.00,,,0.00,Wunderground v.1.15,2013-07-11 16:24:00,
2013-07-11 11:29:00,80.2,62.0,29.60,NE,42,0.0,5.0,54,0.00,,,0.00,Wunderground v.1.15,2013-07-11 16:29:00,
2013-07-11 11:34:00,80.1,62.0,29.59,ESE,106,0.0,5.0,54,0.00,,,0.00,Wunderground v.1.15,2013-07-11 16:34:00,
2013-07-11 11:39:00,79.9,61.8,29.60,ESE,106,1.0,5.0,54,0.00,,,0.00,Wunderground v.1.15,2013-07-11 16:39:00,
2013-07-11 11:44:00,80.1,62.5,29.59,ESE,105,4.0,5.0,55,0.00,,,0.00,Wunderground v.1.15,2013-07-11 16:44:00,
2013-07-11 11:49:00,80.3,64.2,29.59,East,95,0.0,5.0,58,0.00,,,0.00,Wunderground v.1.15,2013-07-11 16:49:00,
2013-07-11 11:54:00,80.9,61.6,29.59,East,95,0.0,1.0,52,0.00,,,0.00,Wunderground v.1.15,2013-07-11 16:54:00,
2013-07-11 11:59:00,80.6,63.5,29.59,East,95,0.0,1.0,56,0.00,,,0.00,Wunderground v.1.15,2013-07-11 16:59:00,
2013-07-11 12:04:00,80.7,62.5,29.60,East,95,0.0,2.0,54,0.00,,,0.00,Wunderground v.1.15,2013-07-11 17:04:00,
2013-07-11 12:09:00,80.9,62.2,29.60,East,96,2.0,4.0,53,0.00,,,0.00,Wunderground v.1.15,2013-07-11 17:09:00,
2013-07-11 12:15:00,81.2,63.0,29.59,ESE,108,5.0,5.0,54,0.00,,,0.00,Wunderground v.1.15,2013-07-11 17:15:00,
2013-07-11 12:20:00,80.8,63.1,29.59,SE,140,0.0,1.0,55,0.00,,,0.00,Wunderground v.1.15,2013-07-11 17:20:00,
2013-07-11 12:25:00,81.5,62.7,29.59,SE,140,2.0,2.0,53,0.00,,,0.00,Wunderground v.1.15,2013-07-11 17:25:00,
2013-07-11 12:30:00,80.9,62.2,29.59,SE,140,0.0,0.0,53,0.00,,,0.00,Wunderground v.1.15,2013-07-11 17:30:00,
2013-07-11 12:35:00,80.9,65.2,29.59,SE,140,0.0,0.0,59,0.00,,,0.00,Wunderground v.1.15,2013-07-11 17:35:00,
2013-07-11 12:41:00,81.3,61.4,29.59,SE,140,0.0,0.0,51,0.00,,,0.00,Wunderground v.1.15,2013-07-11 17:41:00,
2013-07-11 12:46:00,81.8,63.0,29.59,SSE,151,0.0,5.0,53,0.00,,,0.00,Wunderground v.1.15,2013-07-11 17:46:00,
2013-07-11 12:51:00,82.1,-99.9,29.59,SSE,150,0.0,1.0,255,0.00,,,0.00,Wunderground v.1.15,2013-07-11 17:51:00,
2013-07-11 12:56:00,81.9,63.1,29.59,SSE,150,0.0,2.0,53,0.00,,,0.00,Wunderground v.1.15,2013-07-11 17:56:00,
2013-07-11 13:01:00,82.6,63.2,29.59,SSE,150,5.0,5.0,52,0.00,,,0.00,Wunderground v.1.15,2013-07-11 18:01:00,
2013-07-11 13:06:00,81.8,64.1,29.59,SSE,150,0.0,6.0,55,0.00,,,0.00,Wunderground v.1.15,2013-07-11 18:06:00,
2013-07-11 13:12:00,82.0,61.5,29.59,SSE,150,0.0,0.0,50,0.00,,,0.00,Wunderground v.1.15,2013-07-11 18:12:00,
2013-07-11 13:18:00,82.1,63.3,29.58,SSE,150,0.0,5.0,53,0.00,,,0.00,Wunderground v.1.15,2013-07-11 18:18:00,
2013-07-11 13:23:00,82.2,63.9,29.58,SSE,150,0.0,0.0,54,0.00,,,0.00,Wunderground v.1.15,2013-07-11 18:23:00,
2013-07-11 13:29:00,82.2,63.9,29.58,SSE,150,0.0,0.0,54,0.00,,,0.00,Wunderground v.1.15,2013-07-11 18:29:00,
2013-07-11 13:35:00,82.1,62.7,29.58,SSE,150,0.0,0.0,52,0.00,,,0.00,Wunderground v.1.15,2013-07-11 18:35:00,
2013-07-11 13:40:00,82.2,63.9,29.58,SSE,150,0.0,0.0,54,0.00,,,0.00,Wunderground v.1.15,2013-07-11 18:40:00,
2013-07-11 13:45:00,82.3,61.8,29.58,SSE,150,0.0,4.0,50,0.00,,,0.00,Wunderground v.1.15,2013-07-11 18:45:00,
2013-07-11 13:50:00,82.4,61.9,29.58,SSE,150,0.0,0.0,50,0.00,,,0.00,Wunderground v.1.15,2013-07-11 18:50:00,
2013-07-11 13:55:00,82.5,62.0,29.58,SE,143,0.0,7.0,50,0.00,,,0.00,Wunderground v.1.15,2013-07-11 18:55:00,
2013-07-11 14:01:00,82.4,63.5,29.58,SE,139,0.0,2.0,53,0.00,,,0.00,Wunderground v.1.15,2013-07-11 19:01:00,
2013-07-11 14:06:00,82.6,61.5,29.58,SE,129,6.0,6.0,49,0.00,,,0.00,Wunderground v.1.15,2013-07-11 19:06:00,
2013-07-11 14:11:00,83.0,61.9,29.58,SE,124,0.0,2.0,49,0.00,,,0.00,Wunderground v.1.15,2013-07-11 19:11:00,
2013-07-11 14:16:00,82.8,62.3,29.58,SE,124,0.0,2.0,50,0.00,,,0.00,Wunderground v.1.15,2013-07-11 19:16:00,
2013-07-11 14:21:00,83.0,63.6,29.58,ESE,119,0.0,1.0,52,0.00,,,0.00,Wunderground v.1.15,2013-07-11 19:21:00,
2013-07-11 14:27:00,83.3,62.7,29.58,ESE,119,0.0,6.0,50,0.00,,,0.00,Wunderground v.1.15,2013-07-11 19:27:00,
2013-07-11 14:32:00,83.0,62.4,29.58,ESE,109,0.0,5.0,50,0.00,,,0.00,Wunderground v.1.15,2013-07-11 19:32:00,
2013-07-11 14:37:00,83.1,60.8,29.58,ESE,109,0.0,5.0,47,0.00,,,0.00,Wunderground v.1.15,2013-07-11 19:37:00,
2013-07-11 14:42:00,83.3,61.0,29.58,East,94,1.0,8.0,47,0.00,,,0.00,Wunderground v.1.15,2013-07-11 19:42:00,
2013-07-11 14:47:00,83.2,62.1,29.58,East,94,0.0,8.0,49,0.00,,,0.00,Wunderground v.1.15,2013-07-11 19:47:00,
2013-07-11 14:53:00,83.2,62.6,29.58,East,94,0.0,2.0,50,0.00,,,0.00,Wunderground v.1.15,2013-07-11 19:53:00,
2013-07-11 14:58:00,83.4,62.8,29.58,East,94,0.0,5.0,50,0.00,,,0.00,Wunderground v.1.15,2013-07-11 19:58:00,
2013-07-11 15:03:00,-999.9,-99.9,29.58,East,94,0.0,1.0,255,0.00,,,0.00,Wunderground v.1.15,2013-07-11 20:03:00,
2013-07-11 15:08:00,84.0,61.6,29.58,East,94,0.0,1.0,47,0.00,,,0.00,Wunderground v.1.15,2013-07-11 20:08:00,
2013-07-11 15:13:00,83.9,63.3,29.58,East,94,0.0,0.0,50,0.00,,,0.00,Wunderground v.1.15,2013-07-11 20:13:00,
2013-07-11 15:19:00,83.9,60.9,29.58,East,94,0.0,4.0,46,0.00,,,0.00,Wunderground v.1.15,2013-07-11 20:19:00,
2013-07-11 15:24:00,83.8,62.0,29.58,East,94,0.0,1.0,48,0.00,,,0.00,Wunderground v.1.15,2013-07-11 20:24:00,
2013-07-11 15:29:00,84.1,-99.9,29.58,East,94,0.0,5.0,255,0.00,,,0.00,Wunderground v.1.15,2013-07-11 20:29:00,
2013-07-11 15:34:00,83.8,63.2,29.58,East,94,0.0,4.0,50,0.00,,,0.00,Wunderground v.1.15,2013-07-11 20:34:00,
2013-07-11 15:40:00,83.7,61.3,29.58,East,93,1.0,1.0,47,0.00,,,0.00,Wunderground v.1.15,2013-07-11 20:40:00,
2013-07-11 15:45:00,83.8,61.4,29.57,East,93,0.0,1.0,47,0.00,,,0.00,Wunderground v.1.15,2013-07-11 20:45:00,
2013-07-11 15:50:00,84.0,61.6,29.57,East,93,0.0,0.0,47,0.00,,,0.00,Wunderground v.1.15,2013-07-11 20:50:00,
2013-07-11 15:55:00,83.8,62.6,29.57,East,93,0.0,0.0,49,0.00,,,0.00,Wunderground v.1.15,2013-07-11 20:55:00,
2013-07-11 16:00:00,84.5,63.8,29.57,East,93,0.0,1.0,50,0.00,,,0.00,Wunderground v.1.15,2013-07-11 21:00:00,
2013-07-11 16:06:00,83.3,61.6,29.57,East,93,0.0,5.0,48,0.00,,,0.00,Wunderground v.1.15,2013-07-11 21:06:00,
2013-07-11 16:11:00,83.6,61.2,29.57,East,93,0.0,5.0,47,0.00,,,0.00,Wunderground v.1.15,2013-07-11 21:11:00,
2013-07-11 16:16:00,83.4,62.8,29.57,East,93,0.0,5.0,50,0.00,,,0.00,Wunderground v.1.15,2013-07-11 21:16:00,
2013-07-11 16:21:00,83.4,61.7,29.57,East,93,0.0,0.0,48,0.00,,,0.00,Wunderground v.1.15,2013-07-11 21:21:00,
2013-07-11 16:26:00,83.3,60.4,29.56,East,93,0.0,0.0,46,0.00,,,0.00,Wunderground v.1.15,2013-07-11 21:26:00,
2013-07-11 16:31:00,83.4,60.4,29.56,East,93,0.0,5.0,46,0.00,,,0.00,Wunderground v.1.15,2013-07-11 21:31:00,
2013-07-11 16:36:00,83.5,59.9,29.56,East,93,0.0,0.0,45,0.00,,,0.00,Wunderground v.1.15,2013-07-11 21:36:00,
2013-07-11 16:42:00,83.5,61.7,29.56,East,93,0.0,1.0,48,0.00,,,0.00,Wunderground v.1.15,2013-07-11 21:42:00,
2013-07-11 16:47:00,83.5,60.5,29.56,East,93,0.0,0.0,46,0.00,,,0.00,Wunderground v.1.15,2013-07-11 21:47:00,
2013-07-11 16:52:00,83.3,62.7,29.56,East,93,2.0,5.0,50,0.00,,,0.00,Wunderground v.1.15,2013-07-11 21:52:00,
2013-07-11 16:58:00,83.2,60.3,29.56,East,93,1.0,7.0,46,0.00,,,0.00,Wunderground v.1.15,2013-07-11 21:58:00,
2013-07-11 17:03:00,83.0,61.9,29.56,East,93,0.0,4.0,49,0.00,,,0.00,Wunderground v.1.15,2013-07-11 22:03:00,
2013-07-11 17:08:00,83.0,61.3,29.55,East,93,0.0,4.0,48,0.00,,,0.00,Wunderground v.1.15,2013-07-11 22:08:00,
2013-07-11 17:14:00,82.9,61.2,29.55,East,93,0.0,0.0,48,0.00,,,0.00,Wunderground v.1.15,2013-07-11 22:14:00,
2013-07-11 17:19:00,83.0,61.3,29.55,East,93,0.0,6.0,48,0.00,,,0.00,Wunderground v.1.15,2013-07-11 22:19:00,
2013-07-11 17:24:00,83.0,60.7,29.55,East,93,0.0,5.0,47,0.00,,,0.00,Wunderground v.1.15,2013-07-11 22:24:00,
2013-07-11 17:29:00,82.9,61.8,29.54,East,93,0.0,5.0,49,0.00,,,0.00,Wunderground v.1.15,2013-07-11 22:29:00,
2013-07-11 17:35:00,83.1,60.8,29.54,East,87,0.0,6.0,47,0.00,,,0.00,Wunderground v.1.15,2013-07-11 22:35:00,
2013-07-11 17:40:00,83.0,61.3,29.54,East,86,0.0,0.0,48,0.00,,,0.00,Wunderground v.1.15,2013-07-11 22:40:00,
2013-07-11 17:45:00,82.7,61.0,29.54,East,86,0.0,5.0,48,0.00,,,0.00,Wunderground v.1.15,2013-07-11 22:45:00,
2013-07-11 17:50:00,82.7,61.0,29.54,East,86,0.0,0.0,48,0.00,,,0.00,Wunderground v.1.15,2013-07-11 22:50:00,
2013-07-11 17:56:00,84.8,64.1,29.54,East,86,3.0,4.0,50,0.00,,,0.00,Wunderground v.1.15,2013-07-11 22:56:00,
2013-07-11 18:01:00,82.9,62.4,29.54,East,86,0.0,0.0,50,0.00,,,0.00,Wunderground v.1.15,2013-07-11 23:01:00,
2013-07-11 18:07:00,82.8,63.4,29.54,East,86,0.0,2.0,52,0.00,,,0.00,Wunderground v.1.15,2013-07-11 23:07:00,
2013-07-11 18:12:00,82.7,61.6,29.54,East,86,0.0,1.0,49,0.00,,,0.00,Wunderground v.1.15,2013-07-11 23:12:00,
2013-07-11 18:17:00,82.6,61.5,29.54,East,86,0.0,7.0,49,0.00,,,0.00,Wunderground v.1.15,2013-07-11 23:17:00,
2013-07-11 18:22:00,82.3,63.5,29.54,East,86,0.0,4.0,53,0.00,,,0.00,Wunderground v.1.15,2013-07-11 23:22:00,
2013-07-11 18:28:00,82.0,62.6,29.54,East,86,0.0,4.0,52,0.00,,,0.00,Wunderground v.1.15,2013-07-11 23:28:00,
2013-07-11 18:33:00,82.0,61.5,29.54,East,86,0.0,7.0,50,0.00,,,0.00,Wunderground v.1.15,2013-07-11 23:33:00,
2013-07-11 18:38:00,81.9,62.5,29.54,East,86,0.0,7.0,52,0.00,,,0.00,Wunderground v.1.15,2013-07-11 23:38:00,
2013-07-11 18:44:00,82.1,63.8,29.54,East,86,5.0,5.0,54,0.00,,,0.00,Wunderground v.1.15,2013-07-11 23:44:00,
2013-07-11 18:49:00,81.8,61.3,29.54,East,86,0.0,5.0,50,0.00,,,0.00,Wunderground v.1.15,2013-07-11 23:49:00,
2013-07-11 18:55:00,81.6,63.3,29.54,East,86,0.0,7.0,54,0.00,,,0.00,Wunderground v.1.15,2013-07-11 23:55:00,
2013-07-11 19:00:00,81.2,63.0,29.54,East,86,0.0,0.0,54,0.00,,,0.00,Wunderground v.1.15,2013-07-12 00:00:00,
2013-07-11 19:05:00,81.3,62.5,29.54,East,86,0.0,0.0,53,0.00,,,0.00,Wunderground v.1.15,2013-07-12 00:05:00,
2013-07-11 19:10:00,81.1,62.9,29.54,East,86,0.0,0.0,54,0.00,,,0.00,Wunderground v.1.15,2013-07-12 00:10:00,
2013-07-11 19:15:00,81.1,62.9,29.54,East,86,0.0,0.0,54,0.00,,,0.00,Wunderground v.1.15,2013-07-12 00:15:00,
2013-07-11 19:20:00,81.0,62.8,29.54,East,86,3.0,3.0,54,0.00,,,0.00,Wunderground v.1.15,2013-07-12 00:20:00,
2013-07-11 19:25:00,80.4,62.2,29.54,East,86,0.0,3.0,54,0.00,,,0.00,Wunderground v.1.15,2013-07-12 00:25:00,
2013-07-11 19:31:00,80.0,61.9,29.54,East,86,0.0,0.0,54,0.00,,,0.00,Wunderground v.1.15,2013-07-12 00:31:00,
2013-07-11 19:36:00,79.6,62.0,29.54,East,86,0.0,0.0,55,0.00,,,0.00,Wunderground v.1.15,2013-07-12 00:36:00,
2013-07-11 19:41:00,79.9,62.3,29.54,East,86,0.0,0.0,55,0.00,,,0.00,Wunderground v.1.15,2013-07-12 00:41:00,
2013-07-11 19:46:00,78.8,61.3,29.54,East,86,0.0,0.0,55,0.00,,,0.00,Wunderground v.1.15,2013-07-12 00:46:00,
2013-07-11 19:51:00,78.5,61.5,29.53,East,86,0.0,0.0,56,0.00,,,0.00,Wunderground v.1.15,2013-07-12 00:51:00,
2013-07-11 19:56:00,78.1,61.6,29.54,East,86,0.0,0.0,57,0.00,,,0.00,Wunderground v.1.15,2013-07-12 00:56:00,
2013-07-11 20:01:00,77.6,62.1,29.53,East,86,0.0,0.0,59,0.00,,,0.00,Wunderground v.1.15,2013-07-12 01:01:00,
2013-07-11 20:06:00,77.0,61.6,29.53,East,86,0.0,0.0,59,0.00,,,0.00,Wunderground v.1.15,2013-07-12 01:06:00,
2013-07-11 20:12:00,76.4,61.5,29.53,East,86,0.0,0.0,60,0.00,,,0.00,Wunderground v.1.15,2013-07-12 01:12:00,
2013-07-11 20:17:00,75.9,61.5,29.53,East,86,0.0,0.0,61,0.00,,,0.00,Wunderground v.1.15,2013-07-12 01:17:00,
2013-07-11 20:22:00,75.5,61.6,29.53,East,86,0.0,0.0,62,0.00,,,0.00,Wunderground v.1.15,2013-07-12 01:22:00,
2013-07-11 20:27:00,-999.9,-99.9,29.53,East,86,0.0,0.0,63,0.00,,,0.00,Wunderground v.1.15,2013-07-12 01:27:00,
2013-07-11 20:32:00,74.7,61.7,29.53,East,86,0.0,0.0,64,0.00,,,0.00,Wunderground v.1.15,2013-07-12 01:32:00,
2013-07-11 20:38:00,74.3,61.3,29.53,East,86,0.0,0.0,64,0.00,,,0.00,Wunderground v.1.15,2013-07-12 01:38:00,
2013-07-11 20:43:00,73.9,60.5,29.53,East,86,0.0,0.0,63,0.00,,,0.00,Wunderground v.1.15,2013-07-12 01:43:00,
2013-07-11 20:48:00,73.6,60.2,29.53,East,86,0.0,0.0,63,0.00,,,0.00,Wunderground v.1.15,2013-07-12 01:48:00,
2013-07-11 20:53:00,-90.0,-95.9,29.53,East,86,0.0,0.0,63,0.00,,,0.00,Wunderground v.1.15,2013-07-12 01:53:00,
2013-07-11 20:59:00,73.8,60.4,29.53,East,86,0.0,0.0,63,0.00,,,0.00,Wunderground v.1.15,2013-07-12 01:59:00,
2013-07-11 21:04:00,73.0,60.1,29.53,East,86,0.0,0.0,64,0.00,,,0.00,Wunderground v.1.15,2013-07-12 02:04:00,
2013-07-11 21:10:00,72.7,60.3,29.53,East,86,0.0,0.0,65,0.00,,,0.00,Wunderground v.1.15,2013-07-12 02:10:00,
2013-07-11 21:15:00,72.4,60.4,29.53,East,86,0.0,0.0,66,0.00,,,0.00,Wunderground v.1.15,2013-07-12 02:15:00,
2013-07-11 21:20:00,72.2,60.2,29.54,East,86,0.0,0.0,66,0.00,,,0.00,Wunderground v.1.15,2013-07-12 02:20:00,
2013-07-11 21:25:00,72.1,60.1,29.54,East,86,0.0,0.0,66,0.00,,,0.00,Wunderground v.1.15,2013-07-12 02:25:00,
2013-07-11 21:30:00,72.1,-99.9,29.54,East,86,0.0,0.0,255,0.00,,,0.00,Wunderground v.1.15,2013-07-12 02:30:00,
2013-07-11 21:36:00,71.8,60.2,29.54,East,86,0.0,0.0,67,0.00,,,0.00,Wunderground v.1.15,2013-07-12 02:36:00,
2013-07-11 21:41:00,71.5,60.0,29.55,East,86,0.0,0.0,67,0.00,,,0.00,Wunderground v.1.15,2013-07-12 02:41:00,
2013-07-11 21:46:00,71.3,60.2,29.55,East,86,0.0,0.0,68,0.00,,,0.00,Wunderground v.1.15,2013-07-12 02:46:00,
2013-07-11 21:51:00,71.1,60.4,29.55,East,86,0.0,0.0,69,0.00,,,0.00,Wunderground v.1.15,2013-07-12 02:51:00,
2013-07-11 21:56:00,70.9,60.2,29.55,East,86,0.0,0.0,69,0.00,,,0.00,Wunderground v.1.15,2013-07-12 02:56:00,
2013-07-11 22:02:00,70.8,60.5,29.55,East,86,0.0,0.0,70,0.00,,,0.00,Wunderground v.1.15,2013-07-12 03:02:00,
2013-07-11 22:07:00,70.5,60.6,29.55,East,86,0.0,0.0,71,0.00,,,0.00,Wunderground v.1.15,2013-07-12 03:07:00,
2013-07-11 22:12:00,70.3,60.4,29.55,East,86,0.0,0.0,71,0.00,,,0.00,Wunderground v.1.15,2013-07-12 03:12:00,
2013-07-11 22:17:00,70.1,59.9,29.56,East,86,0.0,0.0,70,0.00,,,0.00,Wunderground v.1.15,2013-07-12 03:17:00,
2013-07-11 22:23:00,-999.9,-99.9,29.56,East,86,0.0,0.0,71,0.00,,,0.00,Wunderground v.1.15,2013-07-12 03:23:00,
2013-07-11 22:28:00,69.8,60.8,29.56,East,86,0.0,0.0,73,0.00,,,0.00,Wunderground v.1.15,2013-07-12 03:28:00,
2013-07-11 22:34:00,69.7,60.7,29.56,East,86,0.0,0.0,73,0.00,,,0.00,Wunderground v.1.15,2013-07-12 03:34:00,
2013-07-11 22:40:00,69.5,60.5,29.56,East,86,0.0,0.0,73,0.00,,,0.00,Wunderground v.1.15,2013-07-12 03:40:00,
2013-07-11 22:45:00,69.4,60.8,29.56,East,86,0.0,0.0,74,0.00,,,0.00,Wunderground v.1.15,2013-07-12 03:45:00,
2013-07-11 22:50:00,69.3,60.7,29.56,East,86,0.0,0.0,74,0.00,,,0.00,Wunderground v.1.15,2013-07-12 03:50:00,
2013-07-11 22:55:00,69.1,61.2,29.56,East,86,0.0,0.0,76,0.00,,,0.00,Wunderground v.1.15,2013-07-12 03:55:00,
2013-07-11 23:00:00,69.0,61.1,29.56,East,86,0.0,0.0,76,0.00,,,0.00,Wunderground v.1.15,2013-07-12 04:00:00,
2013-07-11 23:01:00,69.0,61.1,29.56,East,86,0.0,0.0,76,0.00,,,0.00,Wunderground v.1.15,2013-07-12 04:01:00,
2013-07-11 23:06:00,68.7,60.8,29.56,East,86,0.0,0.0,76,0.00,,,0.00,Wunderground v.1.15,2013-07-12 04:06:00,
2013-07-11 23:11:00,68.5,61.0,29.56,East,86,0.0,0.0,77,0.00,,,0.00,Wunderground v.1.15,2013-07-12 04:11:00,
2013-07-11 23:16:00,68.4,61.3,29.56,East,86,0.0,0.0,78,0.00,,,0.00,Wunderground v.1.15,2013-07-12 04:16:00,
2013-07-11 23:21:00,68.2,60.7,29.56,East,86,0.0,0.0,77,0.00,,,0.00,Wunderground v.1.15,2013-07-12 04:21:00,
2013-07-11 23:26:00,68.0,60.9,29.57,East,86,0.0,0.0,78,0.00,,,0.00,Wunderground v.1.15,2013-07-12 04:26:00,
2013-07-11 23:32:00,67.8,61.0,29.57,East,86,0.0,0.0,79,0.00,,,0.00,Wunderground v.1.15,2013-07-12 04:32:00,
2013-07-11 23:37:00,67.6,60.9,29.57,East,86,0.0,0.0,79,0.00,,,0.00,Wunderground v.1.15,2013-07-12 04:37:00,
2013-07-11 23:42:00,67.6,60.9,29.57,East,86,0.0,0.0,79,0.00,,,0.00,Wunderground v.1.15,2013-07-12 04:42:00,
2013-07-11 23:48:00,67.4,60.7,29.57,East,86,0.0,0.0,79,0.00,,,0.00,Wunderground v.1.15,2013-07-12 04:48:00,
2013-07-11 23:53:00,67.2,60.8,29.57,East,86,0.0,0.0,80,0.00,,,0.00,Wunderground v.1.15,2013-07-12 04:53:00,
2013-07-11 23:58:00,67.1,60.7,29.57,East,86,0.0,0.0,80,0.00,,,0.00,Wunderground v.1.15,2013-07-12 04:58:00,